STARLINK-32465, 61716

Orbit data source: Space-Track

STARLINK-32465, 61716 is a payload satellite owned by SpaceX/Seattle (US) in LEO that was launched on Wed, 30 Oct 2024 UTC via an FALCON 9 launch vehicle from the Air Force Eastern Test Range (AFETR). Payload-class satellites include a variety of spacecraft equipped with specific instruments for various scientific and technological missions. These include communications satellites like Starlink; space stations such as the ISS; scientific satellites like the Hubble; Earth observation satellites from companies like Planet Labs, Umbra, and HawkEye 360; GPS; miniature CubeSats for education and research; and military/defense satellites.

Loading next visibility...
Identifier
61716, 2024-196K
Orbit
LEO
Last TLE update
4 hours ago
Origin
Manufacturer
SpaceX/Seattle
Mission
Operational Commercial Communications
Bus & Motor
STARLINK V2M, Unknown motor
Mass
730 kg wet, ~700 kg dry
Launch date (UTC)
2024-10-30 (8 months ago)
Launch vehicle
FALCON 9
Launch site
Air Force Eastern Test Range (AFETR)
Object type
Payload
Rocket body
Debris
Shape & HBR
Box + 2 Pan, 29 m
Radar Cross Section
36.964 m², Large (>1 m²)

Expand to show TLE details & history

TLE from 4 hours ago
0 STARLINK-32465
1 61716U 24196K   25182.23421355 -.00000780  00000-0 -14235-4 0  9992
2 61716  53.1594 189.6109 0001142  80.3622 279.7508 15.30190797 38565
Epoch: 2025-07-01T05:37Z
TLE epoch observation values (Epoch: 2025-07-01T05:37:16.05Z)
Latitude
-0.00001°
Longitude
-174.23858°
Altitude
476.01 km
Speed
7.629 km/s
True Right ascension
12h 38m 26s
True Declination
0° 00' 00"
Sunlit
Object was in daylight at epoch
Visualization orbit readout
Latitude
-43.6645°
Longitude
139.57505°
Altitude
490.525 km
Speed
7.619 km/s
Apparent Right ascension
09h 37m 57s
Apparent Declination
-41° 40' 52"
Sunlit
Object is in daylight
Visualization observer readout
Local Sidereal Time
21:42:18
Azimuth
155.417° SSE
Elevation
-88.054°
Doppler factor
1
Orbital elements
Apogee altitude
476.282 km
Perigee altitude
474.716 km
Semi-major axis
6,853.636 km
Eccentricity
0.00011
Inclination
53.1594°
RAAN
189.6109°
Arg. of periapsis
80.3622°
True anomaly
Unknown
Mean anomaly
279.7508°
Eccentric anomaly
Unknown
Mean motion
3.82527 °/min
Orbital period
94.11 mins
BSTAR
-0.000014235
Loading maneuver chart data...
Loading SW <> Apogee altitude chart data...
Loading historical data...
Loading historical data...
Loading historical data...
Loading historical data...
Loading historical data...
Loading historical data...
Loading historical data...

STARLINK-32465 Visibility forecast

Observer location: undefined°, undefined°

Span
Click to sort rows by Start time (UTC) header in descending order
Start Az.
Max El. time (UTC)
Max El. Az.
Max El.
End time (UTC)
End Az.
6 mins2025-07-01 10:50:54.849Z293.75° NW2025-07-01 10:53:54.849Z215.339° SW33.897°2025-07-01 10:56:54.849Z155.233° SSE
4 mins2025-07-02 02:09:54.849Z165.054° S2025-07-02 02:11:54.849Z121.072° SE19.725°2025-07-02 02:13:54.849Z84.057° E
5 mins2025-07-02 03:46:54.849Z259.015° W2025-07-02 03:48:54.849Z306.88° NW34.335°2025-07-02 03:51:54.849Z34.352° NE
4 mins2025-07-02 08:44:54.849Z356.005° N2025-07-02 08:45:54.849Z20.417° NNE22.33°2025-07-02 08:48:54.849Z80.93° E
|